N928CJ KSMF-KSAN

Flight info

Callsign N928CJ
Flight time 1h 13m
Altitude 41000
Route FTHIL3 FRA EHF HUULK COMIX2
Aircraft C700/M-SBDGHM1RWXY/LB2

Departure

Time 2026-04-21 03:35
Airport Sacramento International Airport (KSMF)

Arrival

Time 2026-04-21 04:48
Airport San Diego International Airport (KSAN)
Time Latitude Longitude Altitude Speed Heading
2026-04-21 03:16 38.69276 -121.58432 27 ft 0 kts 91°
2026-04-21 03:26 38.69276 -121.58441 27 ft 2 kts 91°
2026-04-21 03:27 38.69277 -121.58458 27 ft 2 kts 91°
2026-04-21 03:27 38.69277 -121.58474 27 ft 2 kts 91°
2026-04-21 03:27 38.69277 -121.58480 27 ft 0 kts 91°
2026-04-21 03:29 38.69281 -121.58453 27 ft 8 kts 78°
2026-04-21 03:29 38.69305 -121.58396 27 ft 4 kts
2026-04-21 03:29 38.69354 -121.58398 28 ft 11 kts
2026-04-21 03:29 38.69399 -121.58334 28 ft 10 kts 75°
2026-04-21 03:30 38.69449 -121.58292 28 ft 9 kts
2026-04-21 03:30 38.69499 -121.58291 28 ft 8 kts
2026-04-21 03:30 38.69523 -121.58291 28 ft 8 kts
2026-04-21 03:30 38.69589 -121.58289 28 ft 12 kts
2026-04-21 03:31 38.69684 -121.58287 28 ft 15 kts 359°
2026-04-21 03:31 38.69799 -121.58285 28 ft 18 kts
2026-04-21 03:31 38.69932 -121.58283 29 ft 20 kts
2026-04-21 03:31 38.70082 -121.58281 29 ft 22 kts
2026-04-21 03:32 38.70250 -121.58278 29 ft 25 kts
2026-04-21 03:32 38.70415 -121.58275 30 ft 23 kts
2026-04-21 03:32 38.70568 -121.58273 30 ft 22 kts
2026-04-21 03:32 38.70684 -121.58243 30 ft 15 kts 45°
2026-04-21 03:33 38.70702 -121.58137 30 ft 0 kts 90°
2026-04-21 03:34 38.70702 -121.58131 30 ft 4 kts 90°
2026-04-21 03:34 38.70686 -121.58038 30 ft 16 kts 124°
2026-04-21 03:34 38.70558 -121.58010 29 ft 20 kts 180°
2026-04-21 03:34 38.70366 -121.58013 30 ft 61 kts 181°
2026-04-21 03:35 38.69587 -121.58007 58 ft 157 kts 179°
2026-04-21 03:35 38.68323 -121.57998 765 ft 205 kts 178°
2026-04-21 03:35 38.66833 -121.57500 1741 ft 245 kts 152°
2026-04-21 03:35 38.65674 -121.56033 2791 ft 221 kts 131°
2026-04-21 03:36 38.64851 -121.54262 3454 ft 253 kts 121°
2026-04-21 03:36 38.64258 -121.52211 5056 ft 218 kts 109°
2026-04-21 03:36 38.63972 -121.50493 7466 ft 198 kts 124°
2026-04-21 03:36 38.63085 -121.49148 8779 ft 211 kts 141°
2026-04-21 03:37 38.62277 -121.47977 9807 ft 235 kts 135°
2026-04-21 03:37 38.62120 -121.47715 9992 ft 240 kts 133°
2026-04-21 03:37 38.61125 -121.45830 11160 ft 271 kts 129°
2026-04-21 03:37 38.60068 -121.43700 12489 ft 292 kts 129°
2026-04-21 03:38 38.58943 -121.41519 14287 ft 296 kts 130°
2026-04-21 03:38 38.57770 -121.39313 15830 ft 304 kts 131°
2026-04-21 03:38 38.56568 -121.37047 17372 ft 312 kts 131°
2026-04-21 03:38 38.55343 -121.34715 18714 ft 325 kts 131°
2026-04-21 03:39 38.54020 -121.32226 18960 ft 363 kts 131°
2026-04-21 03:39 38.52567 -121.29469 19117 ft 377 kts 130°
2026-04-21 03:39 38.51182 -121.26768 21107 ft 349 kts 131°
2026-04-21 03:39 38.49859 -121.24242 22895 ft 344 kts 134°
2026-04-21 03:40 38.48463 -121.21672 23727 ft 358 kts 134°
2026-04-21 03:40 38.47054 -121.19027 24765 ft 363 kts 133°
2026-04-21 03:40 38.45636 -121.16320 25727 ft 370 kts 133°
2026-04-21 03:40 38.44187 -121.13569 26642 ft 377 kts 134°
2026-04-21 03:41 38.42724 -121.10820 27544 ft 383 kts 134°
2026-04-21 03:41 38.41218 -121.07989 28439 ft 389 kts 134°
2026-04-21 03:41 38.39689 -121.05105 29333 ft 396 kts 134°
2026-04-21 03:41 38.38135 -121.02177 30193 ft 402 kts 134°
2026-04-21 03:42 38.36555 -120.99206 30942 ft 407 kts 134°
2026-04-21 03:42 38.34953 -120.96197 31663 ft 413 kts 134°
2026-04-21 03:42 38.33328 -120.93152 32318 ft 419 kts 133°
2026-04-21 03:42 38.31680 -120.90057 33003 ft 424 kts 133°
2026-04-21 03:43 38.30036 -120.86975 33663 ft 429 kts 133°
2026-04-21 03:43 38.28345 -120.83813 34205 ft 435 kts 133°
2026-04-21 03:43 38.26632 -120.80612 34715 ft 440 kts 133°
2026-04-21 03:43 38.24904 -120.77383 35240 ft 443 kts 132°
2026-04-21 03:44 38.23162 -120.74127 35780 ft 446 kts 132°
2026-04-21 03:44 38.21420 -120.70876 36472 ft 444 kts 132°
2026-04-21 03:44 38.19684 -120.67643 37087 ft 443 kts 132°
2026-04-21 03:44 38.17947 -120.64416 37649 ft 442 kts 132°
2026-04-21 03:45 38.16214 -120.61196 38199 ft 441 kts 132°
2026-04-21 03:45 38.14505 -120.58021 38627 ft 441 kts 132°
2026-04-21 03:45 38.12771 -120.54807 38963 ft 441 kts 132°
2026-04-21 03:45 38.11035 -120.51590 39282 ft 442 kts 132°
2026-04-21 03:46 38.09298 -120.48373 39595 ft 442 kts 132°
2026-04-21 03:46 38.07556 -120.45153 39901 ft 443 kts 131°
2026-04-21 03:46 38.05813 -120.41930 40202 ft 443 kts 131°
2026-04-21 03:46 38.04054 -120.38728 40472 ft 442 kts 131°
2026-04-21 03:47 38.02293 -120.35597 40775 ft 442 kts 131°
2026-04-21 03:47 38.00505 -120.32407 40949 ft 445 kts 131°
2026-04-21 03:47 37.96873 -120.25897 40955 ft 457 kts 133°
2026-04-21 03:48 37.92370 -120.20257 40965 ft 454 kts 148°
2026-04-21 03:48 37.87071 -120.16076 40964 ft 447 kts 155°
2026-04-21 03:49 37.81762 -120.12103 40955 ft 447 kts 155°
2026-04-21 03:49 37.76407 -120.08122 40932 ft 447 kts 154°
2026-04-21 03:50 37.71045 -120.04133 40931 ft 447 kts 154°
2026-04-21 03:50 37.65675 -120.00149 40943 ft 449 kts 154°
2026-04-21 03:51 37.60282 -119.96153 40939 ft 451 kts 154°
2026-04-21 03:51 37.54920 -119.92186 40944 ft 449 kts 154°
2026-04-21 03:52 37.49537 -119.88213 40934 ft 448 kts 155°
2026-04-21 03:52 37.44146 -119.84239 40935 ft 450 kts 155°
2026-04-21 03:53 37.38740 -119.80260 40944 ft 451 kts 154°
2026-04-21 03:53 37.33349 -119.76301 40939 ft 453 kts 155°
2026-04-21 03:54 37.27903 -119.72306 40935 ft 454 kts 155°
2026-04-21 03:54 37.22449 -119.68312 40942 ft 452 kts 155°
2026-04-21 03:55 37.17027 -119.64349 40940 ft 451 kts 155°
2026-04-21 03:55 37.11579 -119.60498 40927 ft 452 kts 160°
2026-04-21 03:56 37.05675 -119.58048 40928 ft 444 kts 171°
2026-04-21 03:56 36.99711 -119.56177 40920 ft 440 kts 170°
2026-04-21 03:57 36.93763 -119.54315 40925 ft 441 kts 171°
2026-04-21 03:57 36.87834 -119.52464 40925 ft 443 kts 170°
2026-04-21 03:58 36.81840 -119.50592 40926 ft 445 kts 170°
2026-04-21 03:58 36.75823 -119.48718 40927 ft 445 kts 170°
2026-04-21 03:59 36.69838 -119.46855 40927 ft 442 kts 170°
2026-04-21 04:00 36.60951 -119.44098 40927 ft 441 kts 171°
2026-04-21 04:00 36.54974 -119.42246 40929 ft 444 kts 171°
2026-04-21 04:01 36.48969 -119.40388 40934 ft 445 kts 171°
2026-04-21 04:01 36.42974 -119.38536 40932 ft 443 kts 171°
2026-04-21 04:02 36.37055 -119.36711 40929 ft 440 kts 171°
2026-04-21 04:02 36.31141 -119.34891 40945 ft 437 kts 171°
2026-04-21 04:03 36.25221 -119.33073 40946 ft 440 kts 171°
2026-04-21 04:03 36.19263 -119.31243 40945 ft 442 kts 171°
2026-04-21 04:04 36.13312 -119.29419 40942 ft 439 kts 171°
2026-04-21 04:04 36.07400 -119.27611 40947 ft 437 kts 171°
2026-04-21 04:05 36.01540 -119.25822 40935 ft 438 kts 171°
2026-04-21 04:05 35.95615 -119.24015 40954 ft 440 kts 171°
2026-04-21 04:06 35.89655 -119.22200 40953 ft 441 kts 171°
2026-04-21 04:06 35.83714 -119.20392 40942 ft 438 kts 171°
2026-04-21 04:07 35.77809 -119.18600 40937 ft 436 kts 171°
2026-04-21 04:07 35.71935 -119.16821 40938 ft 439 kts 171°
2026-04-21 04:08 35.65990 -119.15021 40939 ft 441 kts 171°
2026-04-21 04:08 35.60031 -119.13219 40929 ft 440 kts 171°
2026-04-21 04:09 35.54108 -119.11433 40924 ft 437 kts 171°
2026-04-21 04:09 35.48224 -119.09498 40917 ft 442 kts 165°
2026-04-21 04:10 35.42579 -119.06433 40916 ft 449 kts 161°
2026-04-21 04:10 35.36883 -119.03269 40930 ft 450 kts 160°
2026-04-21 04:11 35.31187 -119.00086 40929 ft 449 kts 160°
2026-04-21 04:11 35.25503 -118.96925 40931 ft 448 kts 161°
2026-04-21 04:12 35.19838 -118.93776 40935 ft 446 kts 160°
2026-04-21 04:12 35.14194 -118.90644 40946 ft 445 kts 160°
2026-04-21 04:13 35.08578 -118.87534 40965 ft 448 kts 160°
2026-04-21 04:13 35.02885 -118.84384 40973 ft 450 kts 160°
2026-04-21 04:14 34.97177 -118.81230 40992 ft 450 kts 160°
2026-04-21 04:14 34.91472 -118.78085 40986 ft 450 kts 160°
2026-04-21 04:15 34.85772 -118.74946 41000 ft 449 kts 160°
2026-04-21 04:15 34.80081 -118.71817 40999 ft 449 kts 160°
2026-04-21 04:16 34.74397 -118.68696 41018 ft 448 kts 160°
2026-04-21 04:16 34.68762 -118.65607 41023 ft 447 kts 161°
2026-04-21 04:17 34.63097 -118.62507 41016 ft 446 kts 161°
2026-04-21 04:17 34.60277 -118.60964 40858 ft 443 kts 161°
2026-04-21 04:17 34.57570 -118.59235 40603 ft 436 kts 155°
2026-04-21 04:17 34.54998 -118.57369 40352 ft 426 kts 155°
2026-04-21 04:18 34.52463 -118.55569 40099 ft 420 kts 155°
2026-04-21 04:18 34.49919 -118.53778 39737 ft 425 kts 155°
2026-04-21 04:18 34.47357 -118.51952 39392 ft 429 kts 155°
2026-04-21 04:18 34.44831 -118.50137 39063 ft 427 kts 155°
2026-04-21 04:19 34.42277 -118.48314 38704 ft 425 kts 155°
2026-04-21 04:19 34.39734 -118.46512 38295 ft 422 kts 155°
2026-04-21 04:19 34.37200 -118.44715 37879 ft 423 kts 155°
2026-04-21 04:19 34.34657 -118.42907 37478 ft 425 kts 155°
2026-04-21 04:20 34.32095 -118.41087 36983 ft 431 kts 155°
2026-04-21 04:20 34.29498 -118.39246 36458 ft 433 kts 155°
2026-04-21 04:20 34.26898 -118.37401 35931 ft 434 kts 155°
2026-04-21 04:20 34.24294 -118.35556 35403 ft 434 kts 154°
2026-04-21 04:21 34.21669 -118.33700 34884 ft 441 kts 154°
2026-04-21 04:21 34.19040 -118.31843 34418 ft 446 kts 154°
2026-04-21 04:21 34.16356 -118.29943 33939 ft 448 kts 154°
2026-04-21 04:21 34.13665 -118.28039 33415 ft 449 kts 154°
2026-04-21 04:22 34.10966 -118.26136 32894 ft 450 kts 154°
2026-04-21 04:22 34.08255 -118.24226 32392 ft 453 kts 154°
2026-04-21 04:22 34.05517 -118.22297 31927 ft 458 kts 154°
2026-04-21 04:22 34.02756 -118.20351 31455 ft 461 kts 154°
2026-04-21 04:23 33.99971 -118.18391 30932 ft 467 kts 154°
2026-04-21 04:23 33.97151 -118.16410 30412 ft 470 kts 154°
2026-04-21 04:23 33.94328 -118.14424 29951 ft 470 kts 153°
2026-04-21 04:23 33.91561 -118.12479 29489 ft 464 kts 153°
2026-04-21 04:24 33.88793 -118.10537 29028 ft 458 kts 154°
2026-04-21 04:24 33.86058 -118.08621 28558 ft 452 kts 154°
2026-04-21 04:24 33.83341 -118.06770 28096 ft 446 kts 155°
2026-04-21 04:24 33.80624 -118.04981 27656 ft 444 kts 154°
2026-04-21 04:25 33.77937 -118.03191 27232 ft 440 kts 154°
2026-04-21 04:25 33.75271 -118.01417 26826 ft 436 kts 154°
2026-04-21 04:25 33.72625 -117.99670 26459 ft 432 kts 154°
2026-04-21 04:25 33.69995 -117.97937 26068 ft 429 kts 154°
2026-04-21 04:26 33.67390 -117.96214 25684 ft 426 kts 154°
2026-04-21 04:26 33.64839 -117.94528 25313 ft 423 kts 154°
2026-04-21 04:26 33.62275 -117.92837 24938 ft 419 kts 154°
2026-04-21 04:26 33.59728 -117.91158 24579 ft 416 kts 154°
2026-04-21 04:27 33.57195 -117.89490 24223 ft 414 kts 154°
2026-04-21 04:27 33.54684 -117.87836 23874 ft 411 kts 154°
2026-04-21 04:27 33.52203 -117.86175 23628 ft 406 kts 153°
2026-04-21 04:27 33.49750 -117.84478 23159 ft 407 kts 153°
2026-04-21 04:28 33.47307 -117.82793 22673 ft 402 kts 153°
2026-04-21 04:28 33.44898 -117.81124 22192 ft 398 kts 151°
2026-04-21 04:28 33.42698 -117.79118 21718 ft 398 kts 142°
2026-04-21 04:28 33.40665 -117.76932 21255 ft 398 kts 141°
2026-04-21 04:29 33.38601 -117.74728 20779 ft 397 kts 142°
2026-04-21 04:29 33.36547 -117.72540 20308 ft 393 kts 142°
2026-04-21 04:29 33.34518 -117.70371 19839 ft 390 kts 142°
2026-04-21 04:29 33.32499 -117.68215 19375 ft 387 kts 142°
2026-04-21 04:30 33.30496 -117.66079 18916 ft 385 kts 142°
2026-04-21 04:30 33.28502 -117.63955 18460 ft 383 kts 142°
2026-04-21 04:30 33.26520 -117.61843 17971 ft 380 kts 142°
2026-04-21 04:30 33.24553 -117.59750 17507 ft 377 kts 142°
2026-04-21 04:31 33.22593 -117.57681 17058 ft 376 kts 142°
2026-04-21 04:31 33.20655 -117.55651 16619 ft 376 kts 142°
2026-04-21 04:31 33.18692 -117.53587 16142 ft 376 kts 142°
2026-04-21 04:31 33.16740 -117.51530 15638 ft 372 kts 142°
2026-04-21 04:32 33.14812 -117.49499 15188 ft 368 kts 142°
2026-04-21 04:32 33.12823 -117.47592 14757 ft 365 kts 148°
2026-04-21 04:32 33.10743 -117.45890 14324 ft 357 kts 148°
2026-04-21 04:32 33.08773 -117.44242 13919 ft 335 kts 148°
2026-04-21 04:33 33.06924 -117.42686 13506 ft 315 kts 148°
2026-04-21 04:33 33.05177 -117.41232 13134 ft 299 kts 148°
2026-04-21 04:33 33.03534 -117.39866 12804 ft 285 kts 148°
2026-04-21 04:33 33.01950 -117.38533 12477 ft 274 kts 148°
2026-04-21 04:34 33.00414 -117.37242 12159 ft 267 kts 148°
2026-04-21 04:34 32.98895 -117.35970 11845 ft 268 kts 148°
2026-04-21 04:34 32.97368 -117.34693 11528 ft 269 kts 148°
2026-04-21 04:34 32.95835 -117.33408 11210 ft 270 kts 147°
2026-04-21 04:35 32.94308 -117.32127 10891 ft 268 kts 147°
2026-04-21 04:35 32.92791 -117.30857 10571 ft 265 kts 147°
2026-04-21 04:35 32.91290 -117.29601 10253 ft 263 kts 147°
2026-04-21 04:35 32.89815 -117.28375 9957 ft 261 kts 147°
2026-04-21 04:36 32.88332 -117.27144 9632 ft 259 kts 147°
2026-04-21 04:36 32.86859 -117.25920 9320 ft 258 kts 147°
2026-04-21 04:36 32.85390 -117.24700 9018 ft 258 kts 147°
2026-04-21 04:36 32.83920 -117.23478 8716 ft 258 kts 147°
2026-04-21 04:37 32.82483 -117.22198 8402 ft 260 kts 140°
2026-04-21 04:37 32.81479 -117.20409 8053 ft 266 kts 112°
2026-04-21 04:37 32.81041 -117.18274 7686 ft 266 kts 103°
2026-04-21 04:37 32.80732 -117.16118 7325 ft 264 kts 101°
2026-04-21 04:38 32.80446 -117.14000 6972 ft 262 kts 101°
2026-04-21 04:38 32.80161 -117.11871 6613 ft 256 kts 101°
2026-04-21 04:38 32.79891 -117.09842 6231 ft 243 kts 101°
2026-04-21 04:38 32.79570 -117.07916 5843 ft 233 kts 107°
2026-04-21 04:39 32.79078 -117.06116 5466 ft 226 kts 110°
2026-04-21 04:39 32.78559 -117.04371 5079 ft 221 kts 110°
2026-04-21 04:39 32.78047 -117.02695 4980 ft 211 kts 111°
2026-04-21 04:39 32.77534 -117.01029 4980 ft 220 kts 111°
2026-04-21 04:40 32.77003 -116.99306 4992 ft 224 kts 111°
2026-04-21 04:40 32.76466 -116.97567 4989 ft 223 kts 111°
2026-04-21 04:40 32.75940 -116.95865 4988 ft 222 kts 111°
2026-04-21 04:40 32.75411 -116.94153 4986 ft 221 kts 111°
2026-04-21 04:41 32.74881 -116.92438 4988 ft 222 kts 111°
2026-04-21 04:41 32.74299 -116.90743 4975 ft 222 kts 122°
2026-04-21 04:41 32.73151 -116.89523 4665 ft 226 kts 157°
2026-04-21 04:41 32.71643 -116.89282 4322 ft 216 kts 186°
2026-04-21 04:42 32.70170 -116.89528 3971 ft 212 kts 190°
2026-04-21 04:42 32.68836 -116.90118 3775 ft 202 kts 220°
2026-04-21 04:42 32.68081 -116.91505 3789 ft 206 kts 248°
2026-04-21 04:42 32.67672 -116.93125 3792 ft 210 kts 264°
2026-04-21 04:43 32.67649 -116.94860 3796 ft 210 kts 275°
2026-04-21 04:43 32.67939 -116.96556 3798 ft 210 kts 285°
2026-04-21 04:43 32.68331 -116.98184 3808 ft 197 kts 286°
2026-04-21 04:43 32.68693 -116.99662 3779 ft 177 kts 285°
2026-04-21 04:44 32.69020 -117.01017 3753 ft 165 kts 285°
2026-04-21 04:44 32.69335 -117.02320 3763 ft 166 kts 285°
2026-04-21 04:44 32.69617 -117.03547 3781 ft 150 kts 284°
2026-04-21 04:44 32.69855 -117.04734 3677 ft 139 kts 282°
2026-04-21 04:45 32.70079 -117.05778 3457 ft 132 kts 285°
2026-04-21 04:45 32.70344 -117.06815 3246 ft 131 kts 286°
2026-04-21 04:45 32.70606 -117.07859 2996 ft 133 kts 286°
2026-04-21 04:45 32.70856 -117.08915 2752 ft 133 kts 284°
2026-04-21 04:46 32.71105 -117.09967 2434 ft 130 kts 287°
2026-04-21 04:46 32.71407 -117.10974 2127 ft 129 kts 289°
2026-04-21 04:46 32.71672 -117.11998 1812 ft 130 kts 285°
2026-04-21 04:46 32.71898 -117.13014 1549 ft 126 kts 285°
2026-04-21 04:47 32.72140 -117.14021 1241 ft 126 kts 286°
2026-04-21 04:47 32.72386 -117.15004 911 ft 126 kts 287°
2026-04-21 04:47 32.72635 -117.15991 614 ft 123 kts 286°
2026-04-21 04:47 32.72863 -117.16972 291 ft 124 kts 286°
2026-04-21 04:48 32.73105 -117.17936 49 ft 117 kts 286°
2026-04-21 04:48 32.73306 -117.18763 16 ft 81 kts 285°
2026-04-21 04:48 32.73420 -117.19230 18 ft 36 kts 286°
2026-04-21 04:48 32.73449 -117.19404 20 ft 12 kts 263°
2026-04-21 04:49 32.73433 -117.19465 20 ft 0 kts 243°
2026-04-21 04:49 32.73429 -117.19474 22 ft 0 kts 239°